{"data":{"norad_id":62990,"epoch":"2026-05-24T17:31:25.668480Z","epoch_age_seconds":88526,"freshness":"FRESH","line1":"1 62990U 25031K   26144.73015820  .00155940  00000+0  11916-2 0  9993","line2":"2 62990  43.0032 262.9266 0003836 262.7138  97.3293 15.70923580 74703","mean_motion":15.7092358,"eccentricity":0.0003836,"inclination_deg":43.0032,"raan_deg":262.9266,"arg_perigee_deg":262.7138,"mean_anomaly_deg":97.3293,"bstar":0.0011916,"rev_number":7470,"period_min":91.665821197999,"perigee_km":353.67287165218,"apogee_km":358.83949810362,"semimajor_km":6734.3931848779,"source":"CELESTRAK","updated_at":"2026-05-25T13:38:19.831925Z"}}